| time (UTC) | temp C | wind direction | speed KPH | gust KPH | rain 1hr cm | rain 24hr cm | rain mn cm | humidity % | barometer mb |
| 20260504081511 | 2 | 355 | 0.0 | 0.0 | 0.00 | 0.00 | 0.00 | 88 | 1016.9 |
| 20260504044539 | 6 | 355 | 0.0 | 0.0 | 0.00 | 0.00 | 0.00 | 73 | 1017.0 |
| 20260504043033 | 6 | 355 | 0.0 | 0.0 | 0.00 | 0.00 | 0.00 | 73 | 1016.9 |
| 20260504041519 | 7 | 355 | 0.0 | 1.6 | 0.00 | 0.00 | 0.00 | 73 | 1016.9 |
| 20260504040024 | 7 | 355 | 0.0 | 1.6 | 0.00 | 0.00 | 0.00 | 74 | 1016.9 |
| 20260504034536 | 7 | 355 | 0.0 | 0.0 | 0.00 | 0.00 | 0.00 | 71 | 1016.8 |
| 20260504033012 | 7 | 355 | 0.0 | 1.6 | 0.00 | 0.00 | 0.00 | 69 | 1016.9 |
| 20260504031514 | 8 | 355 | 0.0 | 1.6 | 0.00 | 0.00 | 0.00 | 66 | 1017.1 |
| 20260504030023 | 8 | 355 | 0.0 | 1.6 | 0.00 | 0.00 | 0.00 | 66 | 1017.0 |
| 20260504024525 | 8 | 356 | 0.0 | 1.6 | 0.00 | 0.00 | 0.00 | 63 | 1017.0 |
| 20260504023026 | 9 | 109 | 0.0 | 0.0 | 0.00 | 0.00 | 0.00 | 62 | 1017.0 |
| 20260504021533 | 9 | 109 | 0.0 | 0.0 | 0.00 | 0.00 | 0.00 | 59 | 1016.9 |
| 20260504020016 | 9 | 109 | 0.0 | 0.0 | 0.00 | 0.00 | 0.00 | 62 | 1016.9 |
| 20260504014520 | 10 | 109 | 0.0 | 1.6 | 0.00 | 0.00 | 0.00 | 63 | 1016.5 |
| 20260504013033 | 10 | 109 | 0.0 | 1.6 | 0.00 | 0.00 | 0.00 | 60 | 1016.2 |
| 20260504011528 | 10 | 109 | 0.0 | 1.6 | 0.00 | 0.00 | 0.00 | 60 | 1016.1 |
| 20260504010033 | 9 | 109 | 0.0 | 0.0 | 0.00 | 0.00 | 0.00 | 62 | 1015.9 |
| 20260504004516 | 10 | 109 | 0.0 | 0.0 | 0.00 | 0.00 | 0.00 | 58 | 1015.9 |
| 20260504003020 | 11 | 109 | 0.0 | 0.0 | 0.00 | 0.00 | 0.00 | 53 | 1015.8 |
| 20260504001525 | 12 | 108 | 0.0 | 0.0 | 0.00 | 0.00 | 0.00 | 49 | 1015.7 |
| 20260504000027 | 13 | 108 | 0.0 | 0.0 | 0.00 | 0.00 | 0.00 | 46 | 1015.6 |
| 20260503234527 | 14 | 109 | 0.0 | 0.0 | 0.00 | 0.00 | 0.00 | 41 | 1015.4 |
| 20260503233018 | 15 | 110 | 0.0 | 0.0 | 0.00 | 0.00 | 0.00 | 40 | 1015.5 |
| 20260503231525 | 16 | 110 | 0.0 | 1.6 | 0.00 | 0.00 | 0.00 | 37 | 1015.4 |
| 20260503230026 | 16 | 226 | 0.0 | 4.8 | 0.00 | 0.00 | 0.00 | 36 | 1015.5 |
| 20260503224527 | 17 | 198 | 0.0 | 6.4 | 0.00 | 0.00 | 0.00 | 35 | 1015.6 |
| 20260503223029 | 17 | 214 | 0.0 | 4.8 | 0.00 | 0.00 | 0.00 | 33 | 1015.5 |
| 20260503221529 | 18 | 294 | 0.0 | 4.8 | 0.00 | 0.00 | 0.00 | 32 | 1015.5 |
| 20260503220022 | 18 | 250 | 1.6 | 3.2 | 0.00 | 0.00 | 0.00 | 28 | 1015.7 |
| 20260503214526 | 20 | 69 | 1.6 | 12.9 | 0.00 | 0.00 | 0.00 | 27 | 1015.8 |
| 20260503213022 | 20 | 262 | 1.6 | 8.0 | 0.00 | 0.00 | 0.00 | 29 | 1016.1 |
| 20260503211518 | 20 | 249 | 1.6 | 8.0 | 0.00 | 0.00 | 0.00 | 25 | 1016.2 |
| 20260503210021 | 20 | 28 | 1.6 | 4.8 | 0.00 | 0.00 | 0.00 | 22 | 1016.2 |
| 20260503204526 | 20 | 288 | 1.6 | 3.2 | 0.00 | 0.00 | 0.00 | 24 | 1016.4 |
| 20260503203029 | 20 | 235 | 1.6 | 6.4 | 0.00 | 0.00 | 0.00 | 31 | 1016.4 |
| 20260503201525 | 19 | 104 | 1.6 | 8.0 | 0.00 | 0.00 | 0.00 | 24 | 1016.7 |
| 20260503200019 | 19 | 162 | 3.2 | 8.0 | 0.00 | 0.00 | 0.00 | 28 | 1016.9 |
| 20260503194527 | 19 | 215 | 1.6 | 4.8 | 0.00 | 0.00 | 0.00 | 28 | 1017.2 |
| 20260503193026 | 18 | 350 | 1.6 | 9.7 | 0.00 | 0.00 | 0.00 | 25 | 1017.3 |
| 20260503191528 | 19 | 124 | 1.6 | 9.7 | 0.00 | 0.00 | 0.00 | 26 | 1017.3 |
| 20260503190019 | 18 | 134 | 1.6 | 6.4 | 0.00 | 0.00 | 0.00 | 32 | 1017.5 |
| 20260503184522 | 18 | 233 | 1.6 | 4.8 | 0.00 | 0.00 | 0.00 | 28 | 1017.9 |
| 20260503183033 | 18 | 13 | 3.2 | 4.8 | 0.00 | 0.00 | 0.00 | 29 | 1018.1 |
| 20260503181542 | 17 | 153 | 3.2 | 6.4 | 0.00 | 0.00 | 0.00 | 31 | 1018.3 |
| 20260503180029 | 17 | 208 | 1.6 | 11.3 | 0.00 | 0.00 | 0.00 | 32 | 1018.5 |
| 20260503174528 | 17 | 339 | 3.2 | 8.0 | 0.00 | 0.00 | 0.00 | 29 | 1018.8 |
| 20260503173039 | 17 | 262 | 1.6 | 8.0 | 0.00 | 0.00 | 0.00 | 35 | 1018.8 |
| 20260503171523 | 16 | 33 | 3.2 | 11.3 | 0.00 | 0.00 | 0.00 | 32 | 1018.9 |